• In Hungary
  • List of Countries
  • For 7 days
  • Water Temperature
  • Satellite Maps
  • Weather Map
  • News
  • Weather Widgets
  • user-avatar
    Login

    Hourly Weather Minsk

    Today, 22 October, Sunday

    Time Temperature Precipitation Wind Pressure Humidity
    00:00 0°C° 0 mm 3 mps 745 mmHg 91%
    01:00 0°C° 0 mm 3 mps 745 mmHg 91%
    02:00 -1°C° 0 mm 2 mps 745 mmHg 93%
    03:00 -2°C° 0 mm 2 mps 745 mmHg 93%
    04:00 -2°C° 0 mm 2 mps 746 mmHg 92%
    05:00 -2°C° 0 mm 2 mps 746 mmHg 92%
    06:00 -2°C° 0 mm 2 mps 746 mmHg 90%
    07:00 -2°C° 0 mm 2 mps 746 mmHg 88%
    08:00 -2°C° 0 mm 2 mps 746 mmHg 86%
    09:00 +1°C° 0 mm 2 mps 746 mmHg 79%
    10:00 +2°C° 0 mm 2 mps 746 mmHg 72%
    11:00 +4°C° 0 mm 2 mps 746 mmHg 65%
    12:00 +4°C° 0 mm 2 mps 746 mmHg 62%
    13:00 +5°C° 0 mm 2 mps 746 mmHg 59%
    14:00 +6°C° 0 mm 1 mps 745 mmHg 56%
    15:00 +5°C° 0 mm 1 mps 745 mmHg 62%
    16:00 +4°C° 0 mm 1 mps 745 mmHg 67%
    17:00 +3°C° 0 mm 1 mps 745 mmHg 72%
    18:00 +2°C° 0 mm 1 mps 745 mmHg 75%
    19:00 +2°C° 0 mm 1 mps 745 mmHg 77%
    20:00 -1°C° 0 mm 2 mps 745 mmHg 80%
    21:00 -1°C° 0 mm 2 mps 745 mmHg 81%
    22:00 -1°C° 0 mm 2 mps 745 mmHg 83%
    23:00 -1°C° 0 mm 2 mps 745 mmHg 84%

    Tomorrow, 23 October, Monday

    Time Temperature Precipitation Wind Pressure Humidity
    00:00 -1°C° 0 mm 2 mps 745 mmHg 84%
    01:00 -1°C° 0 mm 2 mps 745 mmHg 84%
    02:00 -1°C° 0 mm 2 mps 745 mmHg 84%
    03:00 -1°C° 0 mm 2 mps 744 mmHg 84%
    04:00 -1°C° 0 mm 2 mps 744 mmHg 85%
    05:00 -1°C° 0 mm 2 mps 744 mmHg 85%
    06:00 -1°C° 0 mm 3 mps 744 mmHg 84%
    07:00 0°C° 0 mm 3 mps 744 mmHg 83%
    08:00 0°C° 0 mm 3 mps 744 mmHg 82%
    09:00 +1°C° 0 mm 3 mps 744 mmHg 78%
    10:00 +2°C° 0 mm 3 mps 744 mmHg 75%
    11:00 +3°C° 0 mm 3 mps 744 mmHg 71%
    12:00 +3°C° 0 mm 4 mps 744 mmHg 69%
    13:00 +4°C° 0 mm 4 mps 744 mmHg 68%
    14:00 +4°C° 0 mm 4 mps 745 mmHg 66%
    15:00 +3°C° 0 mm 4 mps 745 mmHg 69%
    16:00 +2°C° 0 mm 3 mps 745 mmHg 73%
    17:00 +2°C° 0 mm 3 mps 745 mmHg 76%
    18:00 +1°C° 0 mm 3 mps 745 mmHg 77%
    19:00 +1°C° 0 mm 3 mps 746 mmHg 78%
    20:00 0°C° 0 mm 3 mps 746 mmHg 80%
    21:00 0°C° 0 mm 3 mps 746 mmHg 80%
    22:00 0°C° 0 mm 3 mps 747 mmHg 81%
    23:00 -1°C° 0 mm 3 mps 747 mmHg 81%

    Day after tomorrow, 24 October, Tuesday

    Time Temperature Precipitation Wind Pressure Humidity
    00:00 -1°C° 0 mm 3 mps 747 mmHg 81%
    01:00 -1°C° 0 mm 3 mps 748 mmHg 80%
    02:00 -1°C° 0 mm 3 mps 748 mmHg 80%
    03:00 -2°C° 0 mm 3 mps 748 mmHg 79%
    04:00 -2°C° 0 mm 3 mps 748 mmHg 78%
    05:00 -2°C° 0 mm 3 mps 749 mmHg 77%
    06:00 -2°C° 0 mm 3 mps 749 mmHg 76%
    07:00 -2°C° 0 mm 3 mps 749 mmHg 75%
    08:00 -2°C° 0 mm 3 mps 750 mmHg 75%
    09:00 0°C° 0 mm 3 mps 750 mmHg 69%
    10:00 0°C° 0 mm 4 mps 750 mmHg 64%
    11:00 +1°C° 0 mm 4 mps 751 mmHg 59%
    12:00 +3°C° 0 mm 3 mps 751 mmHg 57%
    13:00 +3°C° 0 mm 3 mps 751 mmHg 56%
    14:00 +4°C° 0 mm 3 mps 751 mmHg 55%
    15:00 +3°C° 0 mm 3 mps 751 mmHg 59%
    16:00 +2°C° 0 mm 3 mps 751 mmHg 63%
    17:00 +2°C° 0 mm 2 mps 752 mmHg 67%
    18:00 +2°C° 0 mm 2 mps 752 mmHg 69%
    19:00 +1°C° 0 mm 2 mps 752 mmHg 72%
    20:00 +1°C° 0 mm 2 mps 752 mmHg 74%
    21:00 -1°C° 0 mm 2 mps 752 mmHg 76%
    22:00 -1°C° 0 mm 2 mps 753 mmHg 78%
    23:00 -1°C° 0 mm 2 mps 753 mmHg 79%

    25 October, Wednesday

    Time Temperature Precipitation Wind Pressure Humidity
    00:00 -2°C° 0 mm 2 mps 753 mmHg 81%
    01:00 -2°C° 0 mm 2 mps 753 mmHg 83%
    02:00 -2°C° 0 mm 2 mps 753 mmHg 85%
    03:00 -3°C° 0 mm 2 mps 753 mmHg 85%
    04:00 -3°C° 0 mm 2 mps 753 mmHg 86%
    05:00 -3°C° 0 mm 2 mps 753 mmHg 86%
    06:00 -3°C° 0 mm 2 mps 753 mmHg 85%
    07:00 -2°C° 0 mm 2 mps 753 mmHg 83%
    08:00 -2°C° 0 mm 2 mps 753 mmHg 82%
    09:00 -1°C° 0 mm 2 mps 753 mmHg 75%
    10:00 +1°C° 0 mm 3 mps 753 mmHg 68%
    11:00 +2°C° 0 mm 3 mps 753 mmHg 61%
    12:00 +3°C° 0 mm 3 mps 753 mmHg 59%
    13:00 +3°C° 0 mm 3 mps 752 mmHg 57%
    14:00 +4°C° 0 mm 3 mps 752 mmHg 55%
    15:00 +3°C° 0 mm 3 mps 752 mmHg 61%
    16:00 +1°C° 0 mm 3 mps 751 mmHg 67%
    17:00 +1°C° 0 mm 2 mps 751 mmHg 72%
    18:00 0°C° 0 mm 3 mps 751 mmHg 73%
    19:00 0°C° 0 mm 3 mps 750 mmHg 75%
    20:00 -2°C° 0 mm 4 mps 750 mmHg 76%
    21:00 -1°C° 0 mm 4 mps 749 mmHg 75%
    22:00 -1°C° 0 mm 5 mps 749 mmHg 73%
    23:00 0°C° 0 mm 5 mps 748 mmHg 72%

    26 October, Thursday

    Time Temperature Precipitation Wind Pressure Humidity
    00:00 -1°C° 0.4 mm 6 mps 747 mmHg 72%
    01:00 -1°C° 0.4 mm 6 mps 747 mmHg 72%
    02:00 -1°C° 0.4 mm 7 mps 746 mmHg 72%
    03:00 -1°C° 1.6 mm 7 mps 745 mmHg 77%
    04:00 -1°C° 1.6 mm 7 mps 744 mmHg 82%
    05:00 -2°C° 1.6 mm 7 mps 742 mmHg 87%
    06:00 -1°C° 0.5 mm 6 mps 742 mmHg 90%
    07:00 -1°C° 0.5 mm 6 mps 741 mmHg 92%
    08:00 0°C° 0.5 mm 5 mps 740 mmHg 95%
    09:00 +1°C° 0.2 mm 5 mps 740 mmHg 96%
    10:00 +1°C° 0.2 mm 4 mps 740 mmHg 97%
    11:00 +3°C° 0.2 mm 4 mps 740 mmHg 97%
    12:00 +4°C° 0.1 mm 4 mps 739 mmHg 96%
    13:00 +5°C° 0.1 mm 4 mps 739 mmHg 95%
    14:00 +6°C° 0.1 mm 4 mps 739 mmHg 94%
    15:00 +6°C° 0.2 mm 4 mps 739 mmHg 94%
    16:00 +6°C° 0.2 mm 4 mps 739 mmHg 94%
    17:00 +6°C° 0.2 mm 4 mps 738 mmHg 94%
    18:00 +6°C° 0.1 mm 5 mps 738 mmHg 93%
    19:00 +6°C° 0.1 mm 5 mps 738 mmHg 93%
    20:00 +6°C° 0.1 mm 5 mps 738 mmHg 92%
    21:00 +6°C° 0.1 mm 5 mps 738 mmHg 92%
    22:00 +6°C° 0.1 mm 5 mps 737 mmHg 93%
    23:00 +6°C° 0.1 mm 5 mps 737 mmHg 93%

    27 October, Friday

    Time Temperature Precipitation Wind Pressure Humidity
    00:00 +6°C° 0.1 mm 5 mps 737 mmHg 93%
    01:00 +6°C° 0.1 mm 5 mps 737 mmHg 93%
    02:00 +6°C° 0.1 mm 5 mps 736 mmHg 93%
    03:00 +6°C° 0.3 mm 5 mps 736 mmHg 93%
    04:00 +6°C° 0.3 mm 5 mps 736 mmHg 93%
    05:00 +6°C° 0.3 mm 5 mps 735 mmHg 93%
    06:00 +6°C° 0.2 mm 4 mps 735 mmHg 93%
    07:00 +6°C° 0.2 mm 4 mps 735 mmHg 93%
    08:00 +6°C° 0.2 mm 4 mps 735 mmHg 92%
    09:00 +6°C° 0.1 mm 5 mps 735 mmHg 90%
    10:00 +7°C° 0.1 mm 5 mps 735 mmHg 88%
    11:00 +7°C° 0.1 mm 5 mps 734 mmHg 85%
    12:00 +7°C° 0.2 mm 5 mps 734 mmHg 84%
    13:00 +8°C° 0.2 mm 5 mps 734 mmHg 83%
    14:00 +8°C° 0.2 mm 5 mps 733 mmHg 82%
    15:00 +7°C° 0.3 mm 5 mps 733 mmHg 85%
    16:00 +7°C° 0.3 mm 5 mps 733 mmHg 87%
    17:00 +6°C° 0.3 mm 4 mps 732 mmHg 89%
    18:00 +6°C° 0.2 mm 4 mps 732 mmHg 90%
    19:00 +6°C° 0.2 mm 4 mps 731 mmHg 91%
    20:00 +6°C° 0.2 mm 4 mps 731 mmHg 92%
    21:00 +6°C° 0 mm 4 mps 730 mmHg 93%
    22:00 +5°C° 0 mm 4 mps 730 mmHg 93%
    23:00 +5°C° 0 mm 3 mps 729 mmHg 94%
    Show more